Buffalo, NY

9:08 AM EDT on July 25, 2017 (GMT -0400)
Buffalo Niagara International

Weather History for KBUF - November, 2012

Change the Weather History Date:

Friday, November 30, 2012

  Actual Average Record
Temperature  
Mean Temperature 32 °F 35 °F  
Max Temperature 38 °F 42 °F 67 °F (1998)
Min Temperature 25 °F 29 °F 2 °F (1875)
Degree Days  
Heating Degree Days 33 30  
Month to date heating degree days 762 729  
Since 1 July heating degree days 1279 1333  
Cooling Degree Days 0 0  
Month to date cooling degree days 0 0  
Year to date cooling degree days 875 544  
Moisture  
Dew Point 25 °F    
Average Humidity 84    
Maximum Humidity 92    
Minimum Humidity 75    
Precipitation  
Precipitation 0.05 in 0.13 in 1.53 in (1927)
Month to date precipitation 1.05 4.01  
Year to date precipitation 29.16 36.59  
Snow  
Snow 0.60 in 0.50 in 19.00 in (1976)
Month to date snowfall 2.4 7.9  
Since 1 July snowfall 2.4 8.8  
Since 1 September snowfall 2.4 8.8  
Snow Depth 0.00 in    
Sea Level Pressure  
Sea Level Pressure 30.34 in    
Wind  
Wind Speed 13 mph (ENE)    
Max Wind Speed 20 mph    
Max Gust Speed 23 mph    
Visibility 8 miles    
Events Fog , Snow    
T = Trace of Precipitation, MM = Missing Value Source: NWS Daily Summary

Daily Weather History Graph

Daily Weather History Graph

Search for Another Location

Airport or City:

Trip Planner

Search our weather history database for the weather conditions in past years. The results will help you decide how hot, cold, wet, or windy it might be!

Date:

Astronomy

Nov. 30, 2012 Rise Set
Actual Time 7:25 AM EST 4:41 PM EST
Civil Twilight 6:53 AM EST 5:13 PM EST
Nautical Twilight 6:18 AM EST 5:48 PM EST
Astronomical Twilight 5:44 AM EST 6:22 PM EST
Moon 6:35 PM EST (11/30) 8:56 AM EST (11/30)
Length of Visible Light 10h 19m
Length of Day
9h 16m
Waning Gibbous, 96% of the Moon is Illuminated
Nov 30
Waning Gibbous
Dec 6
Last Quarter
Dec 13
New
Dec 20
First Quarter
Dec 28
Full

Hourly Weather History & Observations

Time (EST) Temp. Windchill Dew Point Humidity Pressure Visibility Wind Dir Wind Speed Gust Speed Precip Events Conditions
12:54 AM 37.0 °F 30.4 °F 32.0 °F 82% 30.29 in 9.0 mi NE 9.2 mph - N/A   Overcast
1:54 AM 36.0 °F 28.0 °F 30.0 °F 79% 30.30 in 10.0 mi NE 11.5 mph - N/A   Overcast
2:31 AM 35.6 °F 29.2 °F 30.2 °F 81% 30.29 in 10.0 mi NE 8.1 mph - N/A   Overcast
2:42 AM 35.6 °F 27.1 °F 30.2 °F 81% 30.29 in 10.0 mi NE 12.7 mph - N/A   Overcast
2:54 AM 35.1 °F 27.9 °F 28.9 °F 78% 30.31 in 10.0 mi NE 9.2 mph - N/A   Overcast
3:37 AM 33.8 °F 24.8 °F 30.2 °F 87% 30.30 in 10.0 mi NE 12.7 mph - N/A   Overcast
3:54 AM 32.0 °F 22.5 °F 28.9 °F 88% 30.33 in 9.0 mi ENE 12.7 mph - N/A   Overcast
4:54 AM 30.9 °F 19.8 °F 28.0 °F 89% 30.33 in 9.0 mi ENE 16.1 mph - N/A   Overcast
5:54 AM 30.9 °F 21.2 °F 27.0 °F 85% 30.35 in 10.0 mi East 12.7 mph - N/A   Overcast
6:54 AM 30.0 °F 18.7 °F 26.1 °F 85% 30.36 in 10.0 mi ENE 16.1 mph 23.0 mph N/A   Overcast
7:48 AM 28.4 °F 18.0 °F 24.8 °F 86% 30.35 in 10.0 mi East 12.7 mph - N/A   Overcast
7:54 AM 28.9 °F 18.2 °F 24.1 °F 82% 30.38 in 10.0 mi East 13.8 mph - N/A   Overcast
8:48 AM 28.4 °F 16.2 °F 21.2 °F 74% 30.36 in 10.0 mi ENE 17.3 mph - N/A   Overcast
8:54 AM 28.9 °F 18.2 °F 21.9 °F 75% 30.38 in 10.0 mi East 13.8 mph - N/A   Overcast
9:24 AM 28.4 °F 16.6 °F 21.2 °F 74% 30.36 in 10.0 mi ENE 16.1 mph 21.9 mph N/A   Overcast
9:54 AM 28.9 °F 16.9 °F 21.9 °F 75% 30.39 in 10.0 mi East 17.3 mph - N/A   Overcast
10:54 AM 28.9 °F 18.6 °F 21.9 °F 75% 30.39 in 10.0 mi ENE 12.7 mph - N/A   Overcast
11:54 AM 28.0 °F 16.1 °F 21.0 °F 75% 30.37 in 10.0 mi ENE 16.1 mph - N/A   Overcast
12:54 PM 28.9 °F 19.2 °F 21.0 °F 72% 30.35 in 10.0 mi ENE 11.5 mph - N/A   Overcast
1:52 PM 28.4 °F 18.5 °F 21.2 °F 74% 30.32 in 2.5 mi East 11.5 mph - 0.00 in Snow Light Snow
1:54 PM 28.9 °F 18.2 °F 21.9 °F 75% 30.35 in 1.8 mi ENE 13.8 mph - 0.00 in Snow Light Snow
2:14 PM 28.4 °F 18.0 °F 23.0 °F 80% 30.32 in 0.8 mi ENE 12.7 mph - 0.00 in Snow Light Snow
2:28 PM 28.4 °F 17.5 °F 24.8 °F 86% 30.31 in 0.5 mi ENE 13.8 mph - 0.00 in Fog , Snow Snow
2:54 PM 27.0 °F 15.6 °F 25.0 °F 92% 30.33 in 0.8 mi ENE 13.8 mph - 0.02 in Snow Light Snow
3:00 PM 28.4 °F 18.5 °F 24.8 °F 86% 30.29 in 1.2 mi ENE 11.5 mph - 0.00 in Snow Light Snow
3:24 PM 28.4 °F 17.5 °F 24.8 °F 86% 30.30 in 0.5 mi ENE 13.8 mph 21.9 mph 0.00 in Fog , Snow Snow
3:38 PM 28.4 °F 17.5 °F 24.8 °F 86% 30.31 in 1.2 mi ENE 13.8 mph - 0.01 in Snow Light Snow
3:54 PM 28.0 °F 18.1 °F 25.0 °F 88% 30.34 in 1.0 mi ENE 11.5 mph - 0.01 in Snow Light Snow
4:02 PM 28.4 °F 17.0 °F 24.8 °F 86% 30.30 in 1.2 mi NE 15.0 mph - 0.00 in Snow Light Snow
4:11 PM 28.4 °F 17.5 °F 24.8 °F 86% 30.30 in 3.0 mi ENE 13.8 mph - 0.00 in Snow Light Snow
4:50 PM 28.4 °F 16.6 °F 24.8 °F 86% 30.30 in 9.0 mi ENE 16.1 mph 23.0 mph 0.00 in   Overcast
4:54 PM 28.0 °F 16.1 °F 24.1 °F 85% 30.33 in 9.0 mi ENE 16.1 mph 23.0 mph 0.00 in   Overcast
5:54 PM 28.0 °F 16.1 °F 23.0 °F 81% 30.35 in 10.0 mi ENE 16.1 mph - N/A   Overcast
6:54 PM 28.0 °F 17.0 °F 24.1 °F 85% 30.35 in 10.0 mi ENE 13.8 mph 23.0 mph N/A   Overcast
7:54 PM 27.0 °F 16.1 °F 23.0 °F 85% 30.36 in 10.0 mi ENE 12.7 mph - N/A   Mostly Cloudy
8:54 PM 26.1 °F 16.8 °F 21.9 °F 84% 30.36 in 10.0 mi ENE 9.2 mph - N/A   Mostly Cloudy
9:54 PM 26.1 °F 15.0 °F 21.9 °F 84% 30.37 in 10.0 mi ENE 12.7 mph - N/A   Mostly Cloudy
10:54 PM 25.0 °F 14.2 °F 21.9 °F 88% 30.34 in 10.0 mi ENE 11.5 mph - N/A   Mostly Cloudy
11:54 PM 25.0 °F 13.6 °F 21.9 °F 88% 30.34 in 8.0 mi NE 12.7 mph - N/A   Mostly Cloudy